User: anonymous
Location: Campbell River
(50.0170°N, 125.2500°W)
Time: 17:34:38
(UTC-07:00)
Language:

SL-8 R/B - Orbit

View from above orbital plane
View from above orbital plane
View from above satellite
View from above satellite

Ground track
Ground track

The orbit data is extracted from the following two-line orbital elements,

1 31798U 07030B   14205.10734448  .00069830  00000-0  30630-3 0  1613
2 31798 098.1900 257.7742 0010075 149.0925 265.0741 15.84358583395297
Epoch (UTC): 24 July 2014 02:34:34
Eccentricity: 0.0010075
inclination: 98.1900°
perigee height: 311 km
apogee height: 325 km
right ascension of ascending node: 257.7742°
argument of perigee: 149.0925°
revolutions per day: 15.84358583
mean anomaly at epoch: 265.0741°
orbit number at epoch: 39529

The dashed part of the orbit path shows where the satellite is in the earth's shadow,  

DLR